Time,TemperatureF,DewpointF,PressureIn,WindDirection,WindDirectionDegrees,WindSpeedMPH,WindSpeedGustMPH,Humidity,HourlyPrecipIn,Conditions,Clouds,dailyrainin,SoftwareType,DateUTC
2013-11-23 00:21:00,28.0,25.0,29.94,NE,45,0.0,0.0,88,0.00,,,0.08,,2013-11-23 08:21:00,
2013-11-23 00:42:00,27.0,24.0,29.93,NE,45,0.0,0.0,88,0.00,,,0.08,,2013-11-23 08:42:00,
2013-11-23 00:52:00,27.0,24.0,29.93,NE,45,0.0,0.0,88,0.00,,,0.08,,2013-11-23 08:52:00,
2013-11-23 01:21:00,25.0,22.0,29.94,NE,45,0.0,0.0,88,0.00,,,0.08,,2013-11-23 09:21:00,
2013-11-23 01:43:00,26.0,23.0,29.94,NE,45,0.0,0.0,88,0.00,,,0.08,,2013-11-23 09:43:00,
2013-11-23 01:54:00,26.0,23.0,29.94,NE,45,0.0,0.0,88,0.00,,,0.08,,2013-11-23 09:54:00,
2013-11-23 02:22:00,27.0,24.0,29.95,NE,45,0.0,0.0,88,0.00,,,0.08,,2013-11-23 10:22:00,
2013-11-23 02:42:00,27.0,24.0,29.95,NE,45,0.0,0.0,88,0.00,,,0.08,,2013-11-23 10:42:00,
2013-11-23 02:52:00,27.0,24.0,29.95,NE,45,0.0,0.0,88,0.00,,,0.08,,2013-11-23 10:52:00,
2013-11-23 03:22:00,27.0,24.0,29.95,NE,45,0.0,0.0,88,0.00,,,0.08,,2013-11-23 11:22:00,
2013-11-23 03:42:00,27.0,24.0,29.95,NE,45,0.0,0.0,89,0.00,,,0.08,,2013-11-23 11:42:00,
2013-11-23 03:52:00,27.0,24.0,29.95,NE,45,0.0,0.0,89,0.00,,,0.08,,2013-11-23 11:52:00,
2013-11-23 04:22:00,27.0,24.0,29.95,NE,45,0.0,0.0,88,0.00,,,0.08,,2013-11-23 12:22:00,
2013-11-23 04:42:00,27.0,24.0,29.95,NE,45,0.0,0.0,88,0.00,,,0.08,,2013-11-23 12:42:00,
2013-11-23 04:52:00,27.0,24.0,29.95,NE,45,0.0,0.0,88,0.00,,,0.08,,2013-11-23 12:52:00,
2013-11-23 05:11:00,27.0,24.0,29.95,NE,45,0.0,0.0,88,0.00,,,0.08,,2013-11-23 13:11:00,
2013-11-23 05:21:00,27.0,24.0,29.96,NE,45,0.0,0.0,88,0.00,,,0.08,,2013-11-23 13:21:00,
2013-11-23 05:42:00,27.0,24.0,29.96,NE,45,0.0,0.0,88,0.00,,,0.08,,2013-11-23 13:42:00,
2013-11-23 05:52:00,27.0,24.0,29.96,NE,45,0.0,0.0,89,0.00,,,0.08,,2013-11-23 13:52:00,
2013-11-23 06:21:00,27.0,24.0,29.96,NE,45,0.0,0.0,88,0.00,,,0.08,,2013-11-23 14:21:00,
2013-11-23 06:42:00,27.0,24.0,29.97,NE,45,0.0,0.0,89,0.00,,,0.08,,2013-11-23 14:42:00,
2013-11-23 06:52:00,28.0,25.0,29.97,NE,45,0.0,0.0,89,0.00,,,0.08,,2013-11-23 14:52:00,
2013-11-23 07:22:00,28.0,25.0,29.98,NE,45,0.0,0.0,88,0.00,,,0.08,,2013-11-23 15:22:00,
2013-11-23 07:43:00,28.0,25.0,29.98,NE,45,0.0,0.0,89,0.00,,,0.08,,2013-11-23 15:43:00,
2013-11-23 07:54:00,28.0,25.0,29.98,NE,45,0.0,0.0,89,0.00,,,0.08,,2013-11-23 15:54:00,
2013-11-23 08:23:00,29.0,26.0,29.98,NE,45,0.0,0.0,88,0.00,,,0.08,,2013-11-23 16:23:00,
2013-11-23 08:43:00,31.0,28.0,29.98,NE,45,0.0,0.0,88,0.00,,,0.08,,2013-11-23 16:43:00,
2013-11-23 08:53:00,31.0,28.0,29.98,NE,45,0.0,0.0,88,0.00,,,0.08,,2013-11-23 16:53:00,
2013-11-23 09:22:00,33.0,30.0,29.99,NNE,25,0.0,0.0,87,0.00,,,0.08,,2013-11-23 17:22:00,
2013-11-23 09:42:00,33.0,29.0,29.99,NNE,27,0.0,0.0,85,0.00,,,0.06,,2013-11-23 17:42:00,
2013-11-23 09:52:00,33.0,29.0,29.99,NNE,27,0.0,1.0,85,0.00,,,0.06,,2013-11-23 17:52:00,
2013-11-23 10:22:00,33.0,29.0,29.99,NNE,21,0.0,1.0,84,0.00,,,0.06,,2013-11-23 18:22:00,
2013-11-23 10:42:00,34.0,30.0,29.99,ESE,113,0.0,1.0,84,0.00,,,0.06,,2013-11-23 18:42:00,
2013-11-23 10:52:00,35.0,30.0,29.99,East,93,0.0,0.0,82,0.26,,,0.07,,2013-11-23 18:52:00,
2013-11-23 11:21:00,36.0,31.0,29.98,NE,34,0.0,0.0,81,0.07,,,0.11,,2013-11-23 19:21:00,
2013-11-23 11:42:00,36.0,30.0,29.98,NE,45,0.0,2.0,78,0.06,,,0.13,,2013-11-23 19:42:00,
2013-11-23 11:52:00,35.0,29.0,29.98,North,0,0.0,5.0,79,0.06,,,0.13,,2013-11-23 19:52:00,
2013-11-23 12:21:00,33.0,28.0,29.98,NNE,31,0.0,0.0,81,0.00,,,0.15,,2013-11-23 20:21:00,
2013-11-23 12:42:00,33.0,28.0,29.98,NE,45,0.0,0.0,82,0.00,,,0.15,,2013-11-23 20:42:00,
2013-11-23 12:52:00,33.0,28.0,29.98,SE,137,0.0,4.0,82,0.00,,,0.15,,2013-11-23 20:52:00,
2013-11-23 13:21:00,33.0,29.0,29.98,North,7,0.0,2.0,84,0.00,,,0.16,,2013-11-23 21:21:00,
2013-11-23 13:42:00,32.0,28.0,29.98,NNE,23,0.0,0.0,84,0.00,,,0.14,,2013-11-23 21:42:00,
2013-11-23 13:53:00,32.0,28.0,29.98,SSE,167,0.0,1.0,84,0.00,,,0.14,,2013-11-23 21:53:00,
2013-11-23 14:13:00,32.0,28.0,29.97,ESE,106,0.0,1.0,84,0.00,,,0.14,,2013-11-23 22:13:00,
2013-11-23 14:23:00,33.0,29.0,29.97,NNE,20,0.0,2.0,84,0.00,,,0.14,,2013-11-23 22:23:00,
2013-11-23 14:43:00,32.0,28.0,29.98,SSE,165,0.0,0.0,85,0.00,,,0.14,,2013-11-23 22:43:00,
2013-11-23 14:52:00,32.0,28.0,29.98,SSE,148,0.0,2.0,85,0.00,,,0.14,,2013-11-23 22:52:00,
2013-11-23 15:21:00,31.0,27.0,29.98,East,99,0.0,0.0,86,0.00,,,0.14,,2013-11-23 23:21:00,
2013-11-23 15:42:00,31.0,27.0,29.98,ESE,104,0.0,4.0,86,0.00,,,0.16,,2013-11-23 23:42:00,
2013-11-23 15:53:00,31.0,27.0,29.98,East,100,0.0,0.0,86,0.00,,,0.16,,2013-11-23 23:53:00,
2013-11-23 16:11:00,32.0,29.0,29.98,East,79,0.0,0.0,87,0.00,,,0.16,,2013-11-24 00:11:00,
2013-11-23 16:21:00,32.0,28.0,29.99,East,79,0.0,0.0,86,0.00,,,0.16,,2013-11-24 00:21:00,
2013-11-23 16:42:00,31.0,27.0,29.99,East,79,0.0,0.0,86,0.00,,,0.16,,2013-11-24 00:42:00,
2013-11-23 16:52:00,31.0,27.0,29.99,ENE,69,0.0,0.0,86,0.00,,,0.16,,2013-11-24 00:52:00,
2013-11-23 17:11:00,31.0,27.0,29.99,NE,38,0.0,0.0,86,0.00,,,0.16,,2013-11-24 01:11:00,
2013-11-23 17:22:00,30.0,26.0,29.99,NE,44,0.0,0.0,86,0.00,,,0.16,,2013-11-24 01:22:00,
2013-11-23 17:42:00,30.0,26.0,30.00,NE,56,0.0,0.0,86,0.00,,,0.16,,2013-11-24 01:42:00,
2013-11-23 17:52:00,30.0,27.0,30.00,SE,137,0.0,0.0,87,0.00,,,0.16,,2013-11-24 01:52:00,
2013-11-23 18:11:00,30.0,27.0,30.01,NE,55,0.0,0.0,87,0.00,,,0.16,,2013-11-24 02:11:00,
2013-11-23 18:22:00,29.0,26.0,30.01,NNE,17,0.0,0.0,87,0.00,,,0.16,,2013-11-24 02:22:00,
2013-11-23 18:42:00,29.0,26.0,30.01,NNE,17,0.0,0.0,87,0.00,,,0.16,,2013-11-24 02:42:00,
2013-11-23 18:52:00,29.0,26.0,30.01,NNE,17,0.0,0.0,87,0.00,,,0.16,,2013-11-24 02:52:00,
2013-11-23 19:11:00,29.0,26.0,30.01,NNE,17,0.0,0.0,87,0.00,,,0.16,,2013-11-24 03:11:00,
2013-11-23 19:22:00,29.0,26.0,30.02,NNE,17,0.0,0.0,87,0.00,,,0.16,,2013-11-24 03:22:00,
2013-11-23 19:43:00,29.0,26.0,30.02,NNE,17,0.0,0.0,87,0.00,,,0.16,,2013-11-24 03:43:00,
2013-11-23 19:53:00,29.0,26.0,30.02,SE,131,0.0,0.0,87,0.00,,,0.16,,2013-11-24 03:53:00,
2013-11-23 20:02:00,-999.0,-99.9,30.02,SSE,148,0.0,0.0,87,0.00,,,0.16,,2013-11-24 04:02:00,
2013-11-23 20:23:00,29.0,26.0,30.02,SSE,148,0.0,0.0,87,0.00,,,0.16,,2013-11-24 04:23:00,
2013-11-23 20:53:00,28.0,25.0,30.03,SSE,148,0.0,0.0,87,0.00,,,0.16,,2013-11-24 04:53:00,
2013-11-23 21:22:00,28.0,25.0,30.04,SSE,148,0.0,0.0,87,0.00,,,0.16,,2013-11-24 05:22:00,
2013-11-23 21:43:00,28.0,25.0,30.04,SSE,148,0.0,0.0,87,0.00,,,0.16,,2013-11-24 05:43:00,
2013-11-23 21:53:00,28.0,25.0,30.04,SSE,148,0.0,0.0,87,0.00,,,0.16,,2013-11-24 05:53:00,
2013-11-23 22:21:00,28.0,25.0,30.04,SSE,148,0.0,0.0,87,0.00,,,0.16,,2013-11-24 06:21:00,
2013-11-23 22:42:00,28.0,25.0,30.04,SSE,148,0.0,0.0,87,0.00,,,0.16,,2013-11-24 06:42:00,
2013-11-23 22:52:00,28.0,25.0,30.04,SSE,148,0.0,0.0,87,0.00,,,0.16,,2013-11-24 06:52:00,
2013-11-23 23:21:00,27.0,24.0,30.05,SE,145,0.0,0.0,87,0.00,,,0.16,,2013-11-24 07:21:00,
2013-11-23 23:42:00,27.0,24.0,30.04,SE,145,0.0,0.0,87,0.00,,,0.16,,2013-11-24 07:42:00,
2013-11-23 23:52:00,27.0,24.0,30.04,SE,145,0.0,0.0,87,0.00,,,0.16,,2013-11-24 07:52:00,